Wind_Speed
35 35 35 36 36 35 34 32 30 32 28 25 24 25 25 27 27 27 28 27 21 21 18 20 25 25 29 30 25 23 24 23 25 25 23 21 22 21 15 12 11 10 10
32 32 34 35 30 29 29 27 25 27 31 31 27 26 28 25 25 27 26 28 21 19 21 27 29 31 30 25 22 22 22 22 20 21 20 15 12 10 10 10 9 9 10
27 27 27 27 28 28 24 22 23 23 24 23 31 28 23 22 22 23 23 19 18 17 22 26 31 31 28 20 19 18 18 14 10 10 9 6 6 7 8 8 8 8 12
28 27 25 25 24 23 20 17 16 17 21 20 18 19 23 18 19 18 14 16 23 29 29 25 28 23 18 15 10 8 4 2 3 2 2 4 5 7 8 10 10 9 11
26 24 23 22 19 17 14 12 12 11 15 8 8 6 11 13 16 18 15 17 21 24 21 21 17 15 9 7 4 2 3 4 3 4 6 4 5 8 9 10 11 11 12
24 20 18 18 15 13 13 11 8 11 13 11 8 8 11 13 17 18 19 22 20 16 15 14 9 3 0 1 1 4 3 4 3 5 5 5 5 7 9 10 10 11 13
20 15 15 14 15 13 13 12 11 12 11 11 11 12 12 15 18 18 15 12 13 13 12 10 5 7 11 9 9 7 8 9 9 9 8 8 9 11 11 11 10 11 13
18 15 12 13 12 12 12 11 10 10 8 9 11 12 10 13 11 10 10 10 9 4 14 12 11 9 10 11 10 9 8 8 8 9 9 9 10 12 13 11 11 12 12
19 18 15 14 12 11 12 12 12 10 8 9 8 9 9 11 11 9 7 8 21 20 15 15 14 8 6 5 4 5 5 5 6 8 9 10 11 12 12 11 12 16 17
20 19 19 16 13 14 14 14 13 13 14 15 17 19 20 23 26 24 17 22 22 20 13 13 9 7 7 6 7 7 4 2 4 6 9 9 13 14 12 11 10 14 16
17 15 15 15 15 14 15 16 16 18 19 21 23 23 21 19 18 17 15 13 17 20 13 10 11 11 11 10 10 10 10 6 4 4 9 10 13 15 15 15 10 11 13
13 13 15 15 16 16 17 19 17 17 17 18 19 24 27 26 24 23 22 19 15 13 11 11 11 12 12 11 10 10 10 8 4 4 10 15 18 14 16 14 14 13 13
14 15 15 16 19 23 22 20 27 29 27 24 22 23 21 19 16 15 14 14 13 12 11 11 11 14 14 12 10 10 9 12 7 10 14 17 17 15 15 12 11 12 12
17 18 19 23 26 33 30 26 22 22 22 22 21 20 18 18 19 17 14 13 13 12 10 12 16 17 18 17 16 16 12 11 12 13 16 16 15 15 14 13 12 12 14
27 30 31 29 27 24 23 22 22 23 22 21 22 22 22 21 21 19 17 16 15 13 11 14 19 22 25 21 16 12 12 14 15 16 15 15 16 15 12 12 12 13 16
26 23 23 23 22 21 21 23 24 24 24 23 21 20 20 20 17 17 17 16 16 15 15 18 20 23 27 26 20 19 18 18 18 17 20 17 16 15 13 13 13 12 17
23 22 21 22 21 21 21 20 20 20 20 21 21 20 19 18 17 17 16 13 14 16 19 18 19 20 22 22 22 24 22 22 21 20 21 19 17 15 14 14 14 14 15
21 20 18 18 18 18 17 17 17 18 19 19 19 18 17 16 14 12 12 10 17 20 19 18 20 21 22 21 20 20 22 21 22 24 22 21 18 17 16 15 13 13 15
14 14 13 13 14 14 15 16 16 16 16 15 15 16 18 17 16 18 18 21 20 21 21 21 21 21 22 22 21 20 20 21 21 22 23 22 20 19 16 14 12 14 15
8 9 11 12 13 13 13 13 13 13 12 13 13 16 16 13 19 21 22 22 22 22 21 21 21 22 22 21 21 23 23 23 25 23 22 21 18 17 15 14 15 16 14
5 7 9 11 12 12 14 13 13 13 15 17 19 19 17 18 19 19 20 20 20 20 21 21 20 21 22 24 24 25 24 24 26 26 25 21 18 16 13 12 12 14 13
9 8 8 8 10 11 14 13 13 14 15 15 16 16 16 17 18 18 18 19 19 19 19 20 20 21 22 23 24 25 27 27 28 28 27 23 18 15 13 13 12 12 11
6 7 7 7 9 10 11 11 12 13 13 14 14 14 15 16 17 17 18 18 18 18 19 19 20 21 21 21 22 25 26 28 29 29 27 22 18 17 15 15 13 13 12
4 4 6 7 6 7 8 10 11 11 12 13 13 14 15 16 16 17 18 19 19 20 21 22 24 24 24 23 22 23 24 27 29 28 25 20 19 19 19 17 14 11 11
6 6 6 6 7 8 8 9 9 10 10 11 12 13 14 14 14 15 16 17 18 19 21 23 25 26 26 25 24 22 23 26 28 27 23 20 21 22 19 15 13 14 11
5 6 7 7 8 8 8 8 9 9 9 9 10 12 12 12 12 12 14 14 16 18 20 22 25 27 28 27 26 24 24 26 28 27 23 20 24 24 24 19 17 15 14
Wind_Direction
314 308 304 300 298 295 291 289 284 272 270 266 261 262 264 267 266 267 264 276 275 273 278 291 297 304 305 301 292 290 286 282 285 285 288 294 296 305 302 304 308 307 294
322 316 315 313 308 298 295 290 285 280 271 267 263 261 263 268 274 276 279 275 266 274 284 286 302 307 305 297 293 290 286 287 280 289 294 299 299 307 314 321 321 307 297
331 329 324 322 319 313 299 295 288 289 287 285 267 265 271 274 274 276 273 263 273 299 303 307 306 308 304 294 292 291 289 286 290 289 288 307 320 320 341 344 352 4 358
331 328 328 328 322 318 319 301 308 297 309 294 289 277 261 275 273 263 277 296 301 293 293 294 297 300 292 289 291 297 306 312 312 325 16 8 350 353 6 15 18 2 351
331 328 330 333 335 334 333 323 319 316 329 322 306 291 270 274 286 299 296 291 292 291 298 292 289 276 286 295 295 27 56 72 88 86 58 13 6 8 353 353 351 345 341
337 330 333 336 338 342 346 337 332 340 319 319 316 304 292 289 287 290 299 296 293 293 293 291 240 285 338 357 67 101 97 79 63 56 57 27 5 348 343 346 337 338 341
350 346 345 348 354 355 358 353 346 332 326 323 317 311 302 299 301 298 292 295 295 288 283 198 186 115 80 71 68 64 71 86 71 59 50 42 33 20 20 17 18 354 339
4 2 12 1 9 4 5 358 355 357 358 354 351 336 327 328 320 307 297 296 291 178 136 106 101 104 100 80 74 71 62 57 61 52 42 26 16 8 5 2 0 4 0
16 11 5 358 0 357 357 4 15 8 351 360 2 22 29 30 24 27 32 98 112 111 99 91 87 87 64 59 81 73 41 29 30 31 17 7 1 351 353 352 4 7 12
12 29 29 32 34 22 21 35 39 51 64 72 71 68 65 71 69 69 96 125 106 91 88 86 73 53 12 346 336 328 310 316 354 7 11 11 13 0 354 344 358 1 4
7 26 26 28 33 43 54 63 65 85 87 84 78 75 69 63 63 65 74 96 87 76 56 40 48 42 29 19 12 0 347 262 257 3 10 19 13 11 354 354 9 5 348
23 31 41 48 55 60 67 76 81 76 76 78 78 77 76 72 73 79 78 69 61 66 59 51 41 23 13 5 357 352 335 335 176 23 11 10 5 1 0 356 354 5 351
45 54 61 64 74 78 75 79 86 80 77 75 73 76 72 66 65 64 60 58 57 52 58 47 28 11 14 23 18 12 38 87 74 11 5 3 4 3 357 348 344 348 341
65 69 73 78 84 90 88 84 77 71 72 74 71 66 64 64 59 57 56 55 53 57 50 30 33 44 46 47 50 51 62 47 20 13 3 359 355 350 353 349 350 345 352
85 92 83 83 84 83 76 72 69 67 68 67 66 67 63 55 51 45 46 47 42 41 41 49 45 41 35 37 41 39 23 15 16 15 6 357 357 359 360 354 350 0 3
96 83 80 78 74 73 72 71 71 70 66 61 57 53 52 49 44 36 35 40 36 33 54 51 46 37 36 42 44 41 39 30 20 11 10 8 5 4 4 5 6 3 4
83 79 76 74 74 76 72 68 67 64 64 59 53 49 42 38 32 30 26 27 42 49 59 51 43 37 36 37 35 34 32 26 19 13 6 7 8 8 4 360 3 7 5
79 77 74 69 67 68 68 67 62 60 56 55 47 38 33 26 24 25 23 32 51 51 53 48 43 36 32 27 21 21 22 26 21 15 13 11 10 7 6 6 11 12 8
77 70 65 65 60 61 60 54 51 48 49 47 41 37 32 31 44 54 55 56 56 54 48 42 37 31 27 25 23 17 10 9 5 6 11 8 6 5 3 7 10 7 3
63 61 62 62 62 62 54 42 41 38 40 41 43 42 38 46 52 51 53 53 52 49 43 37 33 28 25 23 23 22 19 14 11 8 7 5 5 4 5 9 10 4 8
97 97 76 68 63 52 45 43 43 50 53 53 55 53 49 48 50 50 49 47 46 43 40 35 30 26 28 30 29 24 17 13 10 9 8 9 5 6 15 12 4 5 5
96 100 88 72 55 42 38 42 44 46 48 49 52 51 46 45 46 45 43 40 37 33 29 26 22 20 19 19 19 19 17 14 11 10 10 11 18 19 17 13 9 13 18
78 69 57 39 17 5 23 36 41 45 49 50 49 46 44 44 43 43 42 40 38 37 34 29 25 22 18 17 17 17 16 13 10 10 10 14 24 21 16 14 17 29 43
333 351 349 350 1 32 36 39 40 44 45 44 43 42 43 41 43 46 47 46 43 40 36 31 28 26 23 21 22 22 18 14 12 12 14 26 27 26 25 32 39 49 45
60 55 48 43 38 37 36 36 38 39 37 38 37 36 38 40 45 49 47 43 41 36 34 31 29 27 26 25 27 27 23 17 16 17 23 31 28 23 38 36 40 42 47
23 31 31 33 35 35 34 27 24 26 30 30 30 29 33 37 41 42 38 37 35 31 29 29 29 28 28 27 28 28 25 21 22 22 25 34 32 38 36 44 46 47 57
Height
1502 1497 1492 1489 1487 1484 1482 1481 1481 1479 1479 1478 1478 1477 1476 1477 1478 1477 1476 1475 1474 1474 1474 1473 1472 1468 1465 1463 1460 1456 1453 1451 1446 1443 1441 1439 1436 1435 1435 1432 1431 1429 1427
1497 1492 1487 1482 1480 1477 1474 1473 1473 1471 1470 1470 1470 1470 1470 1471 1471 1471 1471 1471 1468 1468 1468 1466 1466 1461 1459 1456 1453 1450 1448 1445 1443 1440 1437 1436 1435 1434 1432 1430 1429 1427 1425
1494 1489 1485 1481 1477 1473 1470 1468 1466 1465 1463 1462 1462 1463 1464 1464 1465 1466 1465 1465 1465 1462 1462 1461 1460 1457 1453 1450 1447 1445 1443 1441 1439 1438 1436 1434 1434 1433 1431 1430 1428 1426 1424
1491 1486 1482 1478 1474 1470 1467 1465 1463 1462 1460 1459 1458 1457 1460 1460 1461 1461 1461 1461 1460 1460 1458 1456 1455 1452 1449 1447 1444 1442 1440 1439 1439 1438 1436 1435 1435 1434 1432 1430 1427 1426 1425
1487 1483 1479 1475 1471 1467 1465 1463 1462 1461 1459 1457 1456 1455 1456 1457 1457 1455 1456 1455 1455 1454 1452 1452 1450 1447 1445 1445 1442 1440 1440 1439 1440 1438 1435 1437 1436 1434 1432 1429 1427 1426 1425
1484 1479 1476 1473 1470 1467 1465 1463 1461 1460 1458 1457 1455 1455 1455 1454 1454 1452 1450 1450 1450 1449 1449 1448 1446 1445 1445 1442 1443 1441 1441 1441 1441 1437 1437 1437 1436 1434 1432 1428 1426 1425 1423
1483 1479 1476 1473 1470 1468 1466 1464 1462 1460 1458 1457 1455 1453 1452 1451 1449 1448 1446 1446 1445 1446 1446 1445 1445 1446 1445 1447 1445 1445 1444 1443 1441 1439 1438 1438 1436 1434 1431 1429 1426 1425 1423
1484 1480 1477 1474 1472 1469 1467 1464 1462 1460 1458 1456 1454 1452 1450 1448 1446 1444 1443 1443 1443 1443 1444 1447 1449 1450 1449 1448 1448 1448 1446 1445 1443 1441 1440 1439 1437 1434 1431 1429 1427 1425 1422
1486 1482 1478 1475 1473 1470 1468 1465 1463 1460 1458 1457 1455 1453 1450 1448 1446 1444 1442 1443 1445 1448 1450 1451 1452 1452 1452 1450 1449 1448 1447 1446 1445 1443 1442 1439 1437 1434 1432 1430 1427 1424 1422
1488 1484 1481 1477 1475 1472 1470 1467 1465 1463 1461 1460 1458 1456 1455 1453 1452 1450 1448 1449 1451 1454 1454 1456 1456 1455 1454 1452 1450 1449 1447 1447 1446 1444 1443 1440 1437 1434 1431 1429 1427 1424 1422
1491 1487 1484 1480 1477 1475 1473 1471 1470 1468 1467 1466 1464 1463 1462 1460 1459 1458 1457 1457 1459 1460 1460 1460 1459 1457 1455 1453 1451 1448 1446 1444 1445 1444 1442 1440 1437 1434 1431 1428 1426 1424 1422
1492 1489 1486 1483 1481 1479 1478 1476 1476 1474 1473 1472 1471 1470 1470 1469 1468 1467 1466 1466 1465 1465 1464 1463 1461 1459 1457 1454 1451 1448 1445 1443 1444 1443 1442 1440 1437 1434 1431 1428 1426 1424 1422
1495 1492 1490 1488 1486 1485 1484 1483 1483 1483 1482 1480 1479 1478 1477 1476 1475 1474 1472 1471 1470 1468 1467 1466 1464 1461 1457 1454 1451 1447 1445 1445 1445 1444 1442 1439 1437 1434 1431 1429 1426 1424 1421
1499 1498 1496 1493 1493 1493 1492 1492 1491 1489 1488 1487 1486 1484 1482 1481 1480 1478 1476 1475 1474 1472 1470 1468 1466 1463 1459 1457 1454 1452 1450 1449 1447 1445 1443 1440 1437 1434 1431 1428 1425 1423 1420
1505 1506 1504 1503 1502 1501 1500 1499 1497 1496 1494 1493 1491 1490 1489 1486 1485 1484 1482 1480 1478 1476 1474 1472 1469 1466 1462 1459 1457 1455 1453 1451 1449 1447 1444 1440 1437 1433 1430 1428 1425 1422 1419
1514 1513 1512 1511 1509 1508 1506 1505 1504 1502 1500 1499 1497 1496 1494 1492 1491 1489 1487 1484 1482 1480 1477 1474 1472 1470 1467 1464 1461 1459 1457 1454 1451 1448 1444 1440 1437 1434 1430 1428 1425 1423 1419
1521 1520 1519 1517 1516 1514 1512 1511 1509 1508 1507 1505 1503 1501 1500 1497 1496 1493 1491 1489 1486 1484 1480 1479 1477 1474 1472 1469 1466 1463 1460 1457 1453 1449 1445 1441 1438 1434 1431 1428 1425 1422 1420
1528 1527 1525 1523 1521 1520 1518 1517 1516 1514 1512 1510 1508 1506 1504 1502 1499 1497 1495 1492 1489 1486 1484 1483 1481 1478 1476 1473 1470 1466 1463 1459 1455 1451 1446 1442 1438 1435 1432 1428 1426 1423 1421
1533 1531 1530 1528 1527 1525 1524 1522 1520 1519 1517 1515 1514 1512 1508 1506 1503 1500 1497 1494 1492 1490 1489 1487 1485 1482 1479 1476 1473 1469 1465 1461 1457 1452 1448 1443 1439 1435 1432 1429 1427 1425 1422
1537 1535 1534 1533 1531 1530 1528 1526 1525 1523 1521 1519 1517 1514 1513 1511 1507 1504 1501 1499 1497 1495 1493 1491 1489 1486 1482 1479 1475 1472 1468 1463 1458 1453 1448 1444 1440 1436 1433 1430 1428 1425 1422
1539 1539 1538 1537 1536 1534 1532 1531 1529 1527 1524 1522 1520 1518 1517 1514 1511 1509 1507 1504 1502 1500 1498 1495 1493 1490 1486 1483 1479 1474 1470 1465 1461 1455 1450 1445 1441 1437 1435 1432 1429 1426 1424
1542 1542 1541 1540 1539 1538 1536 1534 1533 1531 1528 1526 1524 1523 1521 1519 1516 1513 1511 1509 1506 1504 1502 1499 1496 1493 1489 1485 1481 1477 1473 1468 1463 1457 1452 1447 1443 1440 1437 1433 1430 1427 1425
1546 1545 1544 1543 1542 1540 1539 1538 1536 1535 1533 1531 1529 1527 1525 1523 1520 1518 1515 1513 1511 1509 1506 1503 1500 1496 1492 1488 1484 1480 1475 1470 1465 1459 1454 1449 1446 1442 1438 1435 1432 1429 1427
1548 1547 1546 1545 1544 1543 1542 1541 1539 1538 1537 1535 1533 1531 1529 1526 1524 1522 1520 1518 1516 1513 1511 1507 1503 1500 1495 1492 1488 1483 1479 1475 1469 1463 1458 1453 1449 1445 1441 1437 1434 1432 1430
1549 1548 1548 1547 1546 1545 1545 1543 1542 1541 1539 1538 1536 1534 1532 1530 1528 1526 1524 1522 1520 1518 1514 1511 1507 1503 1499 1495 1491 1487 1483 1478 1473 1467 1462 1457 1453 1448 1444 1441 1438 1436 1434
1550 1549 1549 1548 1548 1547 1546 1545 1544 1543 1542 1540 1539 1537 1535 1533 1531 1530 1528 1526 1524 1521 1518 1515 1511 1507 1503 1498 1494 1490 1486 1482 1477 1471 1466 1462 1457 1453 1449 1445 1442 1439 1437